| time (UTC) | temp C | wind direction | speed KPH | gust KPH | rain 1hr cm | rain 24hr cm | rain mn cm | humidity % | barometer mb |
| 20260508004533 | 22 | 17 | 9.7 | 22.5 | 0.00 | 0.00 | 0.00 | 23 | 1018.1 |
| 20260508003034 | 22 | 353 | 9.7 | 22.5 | 0.00 | 0.00 | 0.00 | 23 | 1018.1 |
| 20260508000031 | 22 | 22 | 14.5 | 25.7 | 0.00 | 0.00 | 0.00 | 24 | 1017.8 |
| 20260507234537 | 22 | 7 | 14.5 | 29.0 | 0.00 | 0.00 | 0.00 | 24 | 1017.9 |
| 20260507233031 | 23 | 28 | 9.7 | 25.7 | 0.00 | 0.00 | 0.00 | 25 | 1018.0 |
| 20260507231531 | 22 | 37 | 8.0 | 19.3 | 0.00 | 0.00 | 0.00 | 27 | 1018.1 |
| 20260507224607 | 22 | 42 | 8.0 | 20.9 | 0.00 | 0.00 | 0.00 | 28 | 1018.5 |
| 20260507223030 | 22 | 48 | 8.0 | 16.1 | 0.00 | 0.00 | 0.00 | 30 | 1018.6 |
| 20260507221535 | 22 | 62 | 9.7 | 17.7 | 0.00 | 0.00 | 0.00 | 31 | 1018.8 |
| 20260507220034 | 21 | 85 | 11.3 | 24.1 | 0.00 | 0.00 | 0.00 | 32 | 1019.0 |
| 20260507214534 | 21 | 88 | 11.3 | 29.0 | 0.00 | 0.00 | 0.00 | 32 | 1019.0 |
| 20260507213042 | 22 | 70 | 9.7 | 29.0 | 0.00 | 0.00 | 0.00 | 32 | 1019.1 |
| 20260507213037 | 22 | 50 | 8.0 | 17.7 | 0.00 | 0.00 | 0.00 | 32 | 1019.2 |
| 20260507210032 | 21 | 34 | 9.7 | 20.9 | 0.00 | 0.00 | 0.00 | 33 | 1019.3 |
| 20260507201537 | 21 | 69 | 8.0 | 16.1 | 0.00 | 0.00 | 0.00 | 36 | 1020.0 |
| 20260507200106 | 21 | 97 | 8.0 | 20.9 | 0.00 | 0.00 | 0.00 | 37 | 1020.0 |
| 20260507194533 | 21 | 84 | 11.3 | 17.7 | 0.00 | 0.00 | 0.00 | 37 | 1020.0 |
| 20260507193107 | 21 | 70 | 8.0 | 17.7 | 0.00 | 0.00 | 0.00 | 37 | 1020.1 |
| 20260507191534 | 20 | 47 | 6.4 | 14.5 | 0.00 | 0.00 | 0.00 | 40 | 1020.3 |
| 20260507190035 | 20 | 55 | 8.0 | 14.5 | 0.00 | 0.00 | 0.00 | 42 | 1020.4 |
| 20260507184541 | 19 | 85 | 8.0 | 19.3 | 0.00 | 0.00 | 0.00 | 45 | 1020.5 |
| 20260507184535 | 20 | 88 | 8.0 | 20.9 | 0.00 | 0.00 | 0.00 | 46 | 1020.6 |
| 20260507181533 | 18 | 73 | 8.0 | 17.7 | 0.00 | 0.00 | 0.00 | 48 | 1020.6 |
| 20260507174532 | 19 | 53 | 9.7 | 25.7 | 0.00 | 0.00 | 0.00 | 43 | 1020.7 |
| 20260507171535 | 18 | 289 | 3.2 | 11.3 | 0.00 | 0.00 | 0.00 | 41 | 1020.8 |
| 20260507170053 | 17 | 292 | 4.8 | 14.5 | 0.00 | 0.00 | 0.00 | 51 | 1020.8 |
| 20260507164606 | 16 | 258 | 6.4 | 17.7 | 0.00 | 0.00 | 0.00 | 57 | 1020.8 |
| 20260507163036 | 15 | 273 | 4.8 | 9.7 | 0.00 | 0.00 | 0.00 | 64 | 1021.0 |
| 20260507161534 | 15 | 292 | 4.8 | 11.3 | 0.00 | 0.00 | 0.00 | 67 | 1021.1 |
| 20260507154645 | 13 | 11 | 1.6 | 8.0 | 0.00 | 0.00 | 0.00 | 80 | 1021.4 |
| 20260507153033 | 12 | 158 | 0.0 | 3.2 | 0.00 | 0.00 | 0.00 | 83 | 1021.5 |
| 20260507151535 | 11 | 158 | 1.6 | 8.0 | 0.00 | 0.00 | 0.00 | 86 | 1021.5 |
| 20260507150051 | 11 | 125 | 1.6 | 8.0 | 0.00 | 0.00 | 0.00 | 91 | 1021.6 |
| 20260507144537 | 9 | 137 | 0.0 | 4.8 | 0.00 | 0.00 | 0.00 | 93 | 1021.5 |
| 20260507143031 | 8 | 119 | 1.6 | 8.0 | 0.00 | 0.00 | 0.00 | 94 | 1021.4 |
| 20260507141531 | 7 | 179 | 1.6 | 4.8 | 0.00 | 0.00 | 0.00 | 94 | 1021.3 |
| 20260507140036 | 6 | 169 | 3.2 | 6.4 | 0.00 | 0.00 | 0.00 | 94 | 1021.1 |
| 20260507133034 | 6 | 146 | 1.6 | 4.8 | 0.00 | 0.00 | 0.00 | 92 | 1021.0 |
| 20260507131536 | 7 | 128 | 4.8 | 8.0 | 0.00 | 0.00 | 0.00 | 92 | 1021.0 |
| 20260507130036 | 7 | 119 | 4.8 | 9.7 | 0.00 | 0.00 | 0.00 | 92 | 1020.9 |
| 20260507124538 | 7 | 97 | 6.4 | 11.3 | 0.00 | 0.00 | 0.00 | 92 | 1020.9 |
| 20260507123034 | 7 | 101 | 3.2 | 8.0 | 0.00 | 0.00 | 0.00 | 91 | 1020.7 |
| 20260507121530 | 7 | 98 | 4.8 | 9.7 | 0.00 | 0.00 | 0.00 | 91 | 1020.7 |
| 20260507114539 | 8 | 88 | 6.4 | 14.5 | 0.00 | 0.00 | 0.00 | 87 | 1020.5 |
| 20260507113035 | 8 | 107 | 4.8 | 14.5 | 0.00 | 0.00 | 0.00 | 86 | 1020.4 |
| 20260507111535 | 8 | 92 | 6.4 | 9.7 | 0.00 | 0.00 | 0.00 | 85 | 1020.2 |
| 20260507104536 | 9 | 104 | 6.4 | 11.3 | 0.00 | 0.00 | 0.00 | 82 | 1020.2 |
| 20260507103037 | 9 | 108 | 4.8 | 12.9 | 0.00 | 0.00 | 0.00 | 79 | 1020.2 |
| 20260507101536 | 9 | 117 | 4.8 | 8.0 | 0.00 | 0.00 | 0.00 | 77 | 1020.2 |
| 20260507100042 | 10 | 161 | 3.2 | 6.4 | 0.00 | 0.00 | 0.00 | 76 | 1020.2 |
| 20260507094535 | 10 | 112 | 1.6 | 8.0 | 0.00 | 0.00 | 0.00 | 75 | 1020.2 |
| 20260507093038 | 10 | 141 | 4.8 | 8.0 | 0.00 | 0.00 | 0.00 | 75 | 1020.2 |
| 20260507091535 | 10 | 137 | 4.8 | 8.0 | 0.00 | 0.00 | 0.00 | 75 | 1020.4 |
| 20260507084535 | 10 | 154 | 0.0 | 4.8 | 0.00 | 0.00 | 0.00 | 68 | 1020.5 |
| 20260507083038 | 10 | 110 | 3.2 | 9.7 | 0.00 | 0.00 | 0.00 | 66 | 1020.5 |
| 20260507081537 | 11 | 180 | 3.2 | 6.4 | 0.00 | 0.00 | 0.00 | 63 | 1020.5 |
| 20260507080030 | 11 | 194 | 4.8 | 9.7 | 0.00 | 0.00 | 0.00 | 60 | 1020.6 |
| 20260507073037 | 13 | 240 | 4.8 | 11.3 | 0.00 | 0.00 | 0.00 | 55 | 1020.4 |
| 20260507071537 | 13 | 284 | 1.6 | 4.8 | 0.00 | 0.00 | 0.00 | 54 | 1020.4 |
| 20260507070034 | 13 | 320 | 1.6 | 6.4 | 0.00 | 0.00 | 0.00 | 53 | 1020.5 |
| 20260507064533 | 13 | 107 | 3.2 | 11.3 | 0.00 | 0.00 | 0.00 | 55 | 1020.5 |
| 20260507063036 | 13 | 96 | 6.4 | 11.3 | 0.00 | 0.00 | 0.00 | 55 | 1020.6 |
| 20260507061535 | 13 | 110 | 3.2 | 14.5 | 0.00 | 0.00 | 0.00 | 54 | 1020.7 |
| 20260507054641 | 15 | 332 | 6.4 | 20.9 | 0.00 | 0.00 | 0.00 | 49 | 1020.6 |
| 20260507053032 | 15 | 345 | 12.9 | 27.4 | 0.00 | 0.00 | 0.00 | 47 | 1020.6 |
| 20260507044530 | 16 | 312 | 14.5 | 27.4 | 0.00 | 0.00 | 0.00 | 42 | 1020.8 |
| 20260507043036 | 16 | 310 | 16.1 | 30.6 | 0.00 | 0.00 | 0.00 | 42 | 1020.8 |
| 20260507041534 | 16 | 310 | 16.1 | 25.7 | 0.00 | 0.00 | 0.00 | 43 | 1020.6 |
| 20260507040045 | 16 | 312 | 17.7 | 33.8 | 0.00 | 0.00 | 0.00 | 45 | 1020.5 |
| 20260507034537 | 16 | 322 | 17.7 | 33.8 | 0.00 | 0.00 | 0.00 | 47 | 1020.5 |
| 20260507031530 | 17 | 315 | 20.9 | 33.8 | 0.00 | 0.00 | 0.00 | 47 | 1020.2 |
| 20260507030107 | 17 | 308 | 22.5 | 38.6 | 0.00 | 0.00 | 0.00 | 46 | 1020.1 |
| 20260507024535 | 17 | 319 | 16.1 | 37.0 | 0.00 | 0.00 | 0.00 | 46 | 1020.1 |
| 20260507023040 | 18 | 325 | 12.9 | 33.8 | 0.00 | 0.00 | 0.00 | 45 | 1020.1 |
| 20260507020031 | 18 | 354 | 9.7 | 20.9 | 0.00 | 0.00 | 0.00 | 43 | 1020.1 |
| 20260507014533 | 20 | 328 | 16.1 | 29.0 | 0.00 | 0.00 | 0.00 | 37 | 1020.0 |
| 20260507013031 | 20 | 323 | 17.7 | 41.8 | 0.00 | 0.00 | 0.00 | 36 | 1020.0 |
| 20260507011535 | 20 | 316 | 16.1 | 32.2 | 0.00 | 0.00 | 0.00 | 37 | 1020.0 |
| 20260507010031 | 20 | 318 | 11.3 | 33.8 | 0.00 | 0.00 | 0.00 | 38 | 1020.0 |